This demonstration page uses our WeatherBlox Daily Observations layout. Learn more.

Left ArrowRight Arrow

39.51506, -84.39828

Hourly Observations for June 30, 2022

Temp ( °F °C ) Dew Point ( °F °C ) Humidity (%) Winds ( mph kmh ) Pressure ( in mb ) Visibility ( mi km ) Precip ( " mm )
12:15 am 00:15 Clear 62 16.4 59 14.8 90 90 Calm 30.24 1024 10 16 0.00 0.00
12:35 am 00:35 Clear 61 16.1 58 14.6 91 91 Calm 30.24 1024 10 16 0.00 0.00
12:55 am 00:55 Clear 60 15.4 58 14.6 95 95 Calm 30.24 1024 10 16 0.00 0.00
1:15 am 01:15 Clear 60 15.6 58 14.2 91 91 Calm 30.24 1024 10 16 0.00 0.00
1:35 am 01:35 Clear 60 15.4 58 14.6 95 95 Calm 30.24 1024 10 16 0.00 0.00
1:55 am 01:55 Clear 59 15 57 14 94 94 Calm 30.23 1024 10 16 0.00 0.00
2:15 am 02:15 Clear 59 14.9 58 14.2 96 96 Calm 30.23 1024 10 16 0.00 0.00
2:35 am 02:35 Clear 58 14.2 57 13.8 97 97 Calm 30.23 1024 10 16 0.00 0.00
2:55 am 02:55 Clear 58 14.4 57 14.1 98 98 Calm 30.23 1024 10 16 0.00 0.00
3:15 am 03:15 Clear 58 14.2 57 13.9 98 98 Calm 30.23 1024 7 11 0.00 0.00
3:35 am 03:35 Clear 57 13.8 56 13.6 99 99 Calm 30.23 1024 10 16 0.00 0.00
3:55 am 03:55 Clear 57 13.9 57 13.8 99 99 N 3 6 30.22 1023 10 16 0.00 0.00
4:15 am 04:15 Clear 57 13.7 56 13.6 99 99 Calm 30.22 1023 10 16 0.00 0.00
4:35 am 04:35 Clear 55 13 55 13 100 100 Calm 30.22 1023 10 16 0.00 0.00
4:55 am 04:55 Clear 55 13 N/A N/A Calm 30.22 1023 10 16 0.00 0.00
5:15 am 05:15 Clear 55 13 N/A N/A N 3 6 30.22 1023 10 16 0.00 0.00
5:35 am 05:35 Clear 55 13 N/A N/A Calm 30.23 1024 10 16 0.00 0.00
5:55 am 05:55 Clear 56 13.1 55 13 99 99 Calm 30.23 1024 10 16 0.00 0.00
6:15 am 06:15 Sunny 55 13 55 13 100 100 N 3 6 30.23 1024 10 16 0.00 0.00
6:35 am 06:35 Sunny 55 13 55 13 100 100 Calm 30.22 1023 10 16 0.00 0.00
6:55 am 06:55 Sunny 55 13 55 13 100 100 Calm 30.23 1024 10 16 0.00 0.00
7:15 am 07:15 Sunny 57 14 57 13.9 99 99 Calm 30.23 1024 10 16 0.00 0.00
7:35 am 07:35 Sunny 60 15.3 58 14.2 93 93 Calm 30.23 1024 10 16 0.00 0.00
7:55 am 07:55 Sunny 62 16.5 59 14.8 90 90 Calm 30.22 1023 10 16 0.00 0.00
8:15 am 08:15 Sunny 64 17.7 58 14.7 83 83 Calm 30.22 1023 10 16 0.00 0.00
8:35 am 08:35 Sunny 67 19.5 57 14 71 71 Calm 30.22 1023 10 16 0.00 0.00
8:55 am 08:55 Sunny 69 20.5 57 13.8 66 66 Calm 30.21 1023 10 16 0.00 0.00
9:15 am 09:15 Sunny 71 21.5 56 13.6 61 61 Calm 30.21 1023 10 16 0.00 0.00
9:35 am 09:35 Sunny 73 22.9 57 13.9 57 57 Calm 30.21 1023 10 16 0.00 0.00
9:55 am 09:55 Sunny 76 24.5 56 13.4 50 50 Calm 30.19 1022 10 16 0.00 0.00
10:15 am 10:15 Sunny 80 26.4 56 13.4 45 45 S 8 13 30.18 1022 10 16 0.00 0.00
10:35 am 10:35 Sunny 80 26.9 56 13.4 43 43 S 7 11 30.17 1022 10 16 0.00 0.00
10:55 am 10:55 Sunny 82 27.6 58 14.3 44 44 SW 7 11 30.17 1022 10 16 0.00 0.00
11:15 am 11:15 Sunny 82 27.9 56 13.2 40 40 SW 6 9 30.16 1021 10 16 0.00 0.00
11:35 am 11:35 Sunny 84 28.8 55 12.9 38 38 S 6 9 30.15 1021 10 16 0.00 0.00
11:55 am 11:55 Sunny 85 29.5 55 12.7 36 36 S 6 9 30.14 1021 10 16 0.00 0.00
12:15 pm 12:15 Sunny 87 30.3 55 12.8 34 34 S 10 17 30.14 1021 10 16 0.00 0.00
12:35 pm 12:35 Sunny 86 30.2 53 11.6 32 32 SSE 8 13 30.14 1021 10 16 0.00 0.00
12:55 pm 12:55 Sunny 87 30.8 52 11.3 30 30 SW 12 19 30.13 1020 10 16 0.00 0.00
1:15 pm 13:15 Sunny 88 30.9 53 11.5 30 30 SSW 14 22 30.12 1020 10 16 0.00 0.00
1:35 pm 13:35 Sunny 88 31.3 50 10.1 27 27 SW 10 17 30.11 1020 10 16 0.00 0.00
1:55 pm 13:55 Sunny 89 31.5 51 10.4 27 27 SSE 8 13 30.10 1019 10 16 0.00 0.00
2:15 pm 14:15 Sunny 90 32 52 11.1 28 28 SSW 10 17 30.10 1019 10 16 0.00 0.00
2:35 pm 14:35 Sunny 90 32 49 9.4 25 25 SSE 7 11 30.09 1019 10 16 0.00 0.00
2:55 pm 14:55 Sunny 91 32.5 52 11.2 27 27 WSW 7 11 30.07 1018 10 16 0.00 0.00
3:15 pm 15:15 Sunny 90 32.1 52 11.1 27 27 Calm 30.07 1018 10 16 0.00 0.00
3:35 pm 15:35 Sunny 91 32.6 50 9.8 24 24 SW 8 13 30.06 1018 10 16 0.00 0.00
3:55 pm 15:55 Sunny 91 32.9 49 9.5 24 24 WSW 12 19 30.05 1017 10 16 0.00 0.00
4:15 pm 16:15 Sunny 91 32.8 49 9.3 23 23 W 7 11 30.05 1017 10 16 0.00 0.00
4:35 pm 16:35 Sunny 91 32.7 48 8.7 23 23 W 10 17 30.04 1017 10 16 0.00 0.00
4:55 pm 16:55 Sunny 92 33.1 48 8.8 22 22 SW 12 19 30.04 1017 10 16 0.00 0.00
5:15 pm 17:15 Sunny 91 32.8 49 9.2 23 23 WSW 12 19 30.03 1017 10 16 0.00 0.00
5:35 pm 17:35 Sunny 92 33.1 50 10 24 24 SSW 10 17 30.03 1017 10 16 0.00 0.00
5:55 pm 17:55 Sunny 91 32.8 51 10.3 25 25 S 9 15 30.02 1016 10 16 0.00 0.00
6:15 pm 18:15 Sunny 91 32.7 51 10.4 25 25 SW 10 17 30.02 1016 10 16 0.00 0.00
6:35 pm 18:35 Sunny 91 32.5 52 11.2 27 27 SSW 8 13 30.02 1016 10 16 0.00 0.00
6:55 pm 18:55 Sunny 90 32.2 50 9.9 25 25 SSW 9 15 30.01 1016 10 16 0.00 0.00
7:15 pm 19:15 Sunny 89 31.9 51 10.3 26 26 SW 9 15 30.01 1016 10 16 0.00 0.00
7:35 pm 19:35 Sunny 89 31.4 53 11.8 30 30 SW 5 7 30.01 1016 10 16 0.00 0.00
7:55 pm 19:55 Sunny 87 30.7 56 13.3 34 34 WSW 5 7 30.01 1016 10 16 0.00 0.00
8:15 pm 20:15 Sunny 84 29.1 59 15.1 43 43 W 5 7 30.01 1016 10 16 0.00 0.00
8:35 pm 20:35 Sunny 82 27.6 60 15.7 48 48 WSW 6 9 30.02 1016 10 16 0.00 0.00
8:55 pm 20:55 Sunny 78 25.5 62 16.8 59 59 WSW 5 7 30.02 1017 10 16 0.00 0.00
9:15 pm 21:15 Clear 73 23 62 16.8 68 68 Calm 30.03 1017 10 16 0.00 0.00
9:35 pm 21:35 Clear 74 23.3 64 17.9 72 72 Calm 30.03 1017 10 16 0.00 0.00
9:55 pm 21:55 Hazy 74 23.1 63 17.3 70 70 NE 3 6 30.03 1017 7 11 0.00 0.00
10:15 pm 22:15 Clear 71 21.8 63 17.2 75 75 NW 3 6 30.04 1017 10 16 0.00 0.00
10:35 pm 22:35 Clear 71 21.5 63 17.3 77 77 Calm 30.04 1017 10 16 0.00 0.00
10:55 pm 22:55 Clear 70 21.3 63 17.1 77 77 Calm 30.05 1018 10 16 0.00 0.00
11:15 pm 23:15 Clear 70 21 62 16.9 78 78 NW 3 6 30.05 1018 10 16 0.00 0.00
11:35 pm 23:35 Clear 69 20.8 62 16.7 77 77 NW 3 6 30.04 1017 10 16 0.00 0.00
11:55 pm 23:55 Clear 69 20.8 62 16.9 78 78 Calm 30.04 1017 10 16 0.00 0.00

Powered by AerisWeather